{"data":{"norad_id":43611,"epoch":"2026-05-25T04:23:51.001152Z","epoch_age_seconds":49387,"freshness":"FRESH","line1":"1 43611U 18069A   26145.18322918 -.00000295  00000+0  00000+0 0  9996","line2":"2 43611   0.0147 284.6209 0001797 136.4261  25.6816  1.00278381 28410","mean_motion":1.00278381,"eccentricity":0.0001797,"inclination_deg":0.0147,"raan_deg":284.6209,"arg_perigee_deg":136.4261,"mean_anomaly_deg":25.6816,"bstar":0,"rev_number":2841,"period_min":1436.0024420418,"perigee_km":35777.169294238,"apogee_km":35792.322634375,"semimajor_km":42162.882964306,"source":"CELESTRAK","updated_at":"2026-05-25T13:38:14.056419Z"}}